Home   Weather   Paris Gap   Past weeks
Flag for USA

Past Weather in Paris Gap, North Carolina, USA — Yesterday and Last 2 Weeks

Now
40 °F

Light rain. Fog.


Feels Like: 35 °F
Forecast: 54 / 39 °F
Wind: 7 mph from South

Location: Asheville Regional Airport

Current Time: Dec 9, 2019 at 8:22:54 am

Latest Report: Dec 9, 2019 at 8:02 am


Visibility: 2 mi

Pressure: 30.09 "Hg

Humidity: 93%

Dew Point: 38 °F

Location of Paris GapLocation

Past Weather in Paris Gap — Graph

°F

Paris Gap Temperature Yesterday

Maximum temperature yesterday: 49 °F (at 2:54 pm)
Minimum temperature yesterday: 39 °F (at 7:54 am)
Average temperature yesterday: 43 °F

High & Low Weather Summary for the Past Weeks

 TemperatureHumidityPressure
High76 °F (Nov 27, 2:54 pm)93% (Nov 27, 6:28 am)30.40 "Hg (Nov 27, 6:28 am)
Low31 °F (Nov 25, 6:54 am)16% (Nov 27, 3:54 pm)29.45 "Hg (Dec 1, 1:54 pm)
Average45 °F61%29.99 "Hg
* Reported Nov 24 7:10 am — Dec 9 7:07 am, Paris Gap. Weather by CustomWeather, © 2019

Note: Actual official high and low records may vary slightly from our data, if they occured in-between our weather recording intervals... More about our weather records

Paris Gap Weather History for the Previous 24 Hours

Scroll right to see more
 ConditionsComfort  
Time TempWeatherWind HumidityBarometerVisibility
7:07 am
Mon, Dec 9
39 °FLight rain. Fog.7 mph93%30.10 "Hg5 mi
6:54 am39 °FLight rain. Fog.6 mph89%30.11 "Hg4 mi
5:54 am38 °FLight rain. Overcast.6 mph90%30.11 "Hg9 mi
4:54 am38 °FOvercast.8 mph86%30.13 "Hg10 mi
4:02 am38 °FLight rain. Overcast.6 mph79%30.14 "Hg6 mi
3:54 am38 °FRain. Mostly cloudy.6 mph79%30.14 "Hg6 mi
2:54 am40 °FLight rain. Overcast.7 mph58%30.16 "Hg10 mi
2:29 am42 °FMostly cloudy.8 mph49%30.18 "Hg10 mi
1:54 am42 °FMostly cloudy.9 mph45%30.19 "Hg10 mi
12:54 am42 °FOvercast.7 mph45%30.22 "Hg10 mi
11:54 pm
Sun, Dec 8
42 °FOvercast.6 mph45%30.22 "Hg10 mi
10:54 pm42 °FOvercast.9 mph45%30.24 "Hg10 mi
9:54 pm42 °FOvercast.6 mph45%30.25 "Hg10 mi
8:54 pm43 °FOvercast.9 mph43%30.27 "Hg10 mi
7:54 pm43 °FMostly cloudy.7 mph43%30.25 "Hg10 mi
6:54 pm43 °FPassing clouds.7 mph45%30.28 "Hg10 mi
5:54 pm43 °FPassing clouds.5 mph43%30.26 "Hg10 mi
4:54 pm46 °FSunny.9 mph40%30.25 "Hg10 mi
3:54 pm48 °FSunny.8 mph41%30.25 "Hg10 mi
2:54 pm49 °FSunny.8 mph41%30.26 "Hg10 mi
1:54 pm46 °FSunny.10 mph46%30.28 "Hg10 mi
12:54 pm46 °FSunny.7 mph48%30.32 "Hg10 mi
11:54 am44 °FSunny.9 mph53%30.37 "Hg10 mi
11:11 am42 °FScattered clouds.10 mph60%30.39 "Hg10 mi
10:54 am42 °FOvercast.10 mph62%30.40 "Hg10 mi
9:54 am39 °FOvercast.10 mph67%30.40 "Hg10 mi
8:54 am39 °FOvercast.10 mph65%30.39 "Hg10 mi
Weather by CustomWeather, © 2019

See weather overview

Advertising